This is the latest recevied weather packets stored in our database for station/object KK7RJD. If no packets are shown the sender has not sent any weather packets the latest 10 day(s).
| Time | Temp. | Humidity | Pressure | Rain* | Wind** | Luminosity | Snow |
|---|---|---|---|---|---|---|---|
| 1777985280 | 1.11° C | 66% | 1016 hPa | 0 mm | - | 46 W/m² | - |
| 1777984672 | 0.56° C | 67% | 1015.8 hPa | 0 mm | - | 30 W/m² | - |
| 1777984369 | 0.56° C | 68% | 1015.9 hPa | 0 mm | - | 25 W/m² | - |
| 1777984066 | 0.56° C | 68% | 1015.8 hPa | 0 mm | - | 20 W/m² | - |
| 1777981035 | 0.56° C | 64% | 1015.3 hPa | 0 mm | - | 0 W/m² | - |
| 1777980732 | 1.11° C | 64% | 1015.3 hPa | 0 mm | - | 0 W/m² | - |
| 1777980126 | 1.67° C | 61% | 1015.3 hPa | 0 mm | - | 0 W/m² | - |
| 1777979825 | 1.67° C | 60% | 1015.3 hPa | 0 mm | - | 0 W/m² | - |
| 1777979521 | 2.22° C | 58% | 1015.3 hPa | 0 mm | - | 0 W/m² | - |
| 1777978612 | 2.22° C | 57% | 1015.3 hPa | 0 mm | - | 0 W/m² | - |
| 1777977398 | 3.33° C | 54% | 1015.2 hPa | 0 mm | - | 0 W/m² | - |
| 1777976793 | 3.33° C | 54% | 1015.1 hPa | 0 mm | - | 0 W/m² | - |
| 1777976491 | 3.89° C | 54% | 1015.1 hPa | 0 mm | - | 0 W/m² | - |
| 1777976189 | 3.89° C | 53% | 1015 hPa | 0 mm | - | 0 W/m² | - |
| 1777975885 | 4.44° C | 52% | 1015.2 hPa | 0 mm | - | 0 W/m² | - |
| 1777975581 | 4.44° C | 52% | 1015.1 hPa | 0 mm | - | 0 W/m² | - |
| 1777975279 | 5° C | 52% | 1015.1 hPa | 0 mm | - | 0 W/m² | - |
| 1777974974 | 5° C | 51% | 1015.1 hPa | 0 mm | - | 0 W/m² | - |
| 1777974064 | 5.56° C | 52% | 1015.2 hPa | 0 mm | - | 0 W/m² | - |
| 1777973760 | 5.56° C | 52% | 1015.1 hPa | 0 mm | - | 0 W/m² | - |
| 1777973458 | 5.56° C | 52% | 1015.2 hPa | 0 mm | - | 0 W/m² | - |
| 1777973155 | 5.56° C | 52% | 1015.2 hPa | 0 mm | - | 0 W/m² | - |
| 1777972854 | 5.56° C | 52% | 1015.1 hPa | 0 mm | - | 0 W/m² | - |
| 1777972550 | 5.56° C | 53% | 1015.1 hPa | 0 mm | - | 0 W/m² | - |
| 1777972249 | 5.56° C | 52% | 1015.1 hPa | 0 mm | - | 0 W/m² | - |
* Rain latest hour (hover to see other rain measurements)
** Current wind speed in m/s (hover to see current wind gust speed)